Showing default

ZINYUAN-3, 45939

Orbit data source: Space-Track

ZINYUAN-3, 45939 is a Chinese payload satellite in SSO that was launched on Sat, 25 Jul 2020 UTC via a CHANG ZHENG 4B launch vehicle from the Taiyaun Space Center, China (TSC). Payload-class satellites include a variety of spacecraft equipped with specific instruments for various scientific and technological missions. These include communications satellites like Starlink; space stations such as the ISS; scientific satellites like the Hubble; Earth observation satellites from companies like Planet Labs, Umbra, and HawkEye 360; GPS; miniature CubeSats for education and research; and military/defense satellites.

Loading next visibility...
Identifier
45939, 2020-051A
Orbit
SSO
Country
Flag of CNCN / PRC
Related business
Manufacturer
CAST
Mission
Operational Civil Imaging
Bus & Motor
ZY, AOCS 20N
Mass
2,400 kg wet, ~2,200 kg dry
Launch date (UTC)
2020-07-25 (6 years ago)
Launch vehicle
CHANG ZHENG 4B
Launch site
Taiyaun Space Center, China (TSC)
Object type
Payload
Rocket body
Debris
Shape & HBR
Box + 2 Pan, 5.0 m
Radar Cross Section
10.304 m², Large (>1 m²)

Expand to show TLE details & history
Last TLE update: 22 hours ago

TLE from 22 hours ago
0 ZINYUAN-3
1 45939U 20051A   26172.52544084  .00005641  00000-0  25523-3 0  9994
2 45939  97.2830 240.1116 0002504 322.9251  37.1812 15.21289113328009
Epoch: 2026-06-21T12:36Z
TLE epoch observation values (Epoch: 2026-06-21T12:36:38.088Z)
Latitude
-0.00001°
Longitude
141.22844°
Altitude
503.674 km
Speed
7.613 km/s
True Right ascension
16h 00m 26s
True Declination
0° 00' 00"
Sunlit
Object was in full shadow at epoch
Visualization orbit readout
Latitude
Unknown
Longitude
Unknown
Altitude
Unknown
Speed
Unknown
Apparent Right ascension
Unknown
Apparent Declination
Unknown
Sunlit
N/A
Visualization observer readout
Local Sidereal Time
21:39:02
Azimuth
Unknown
Elevation
Unknown
Doppler factor
Unknown
Orbital elements
Apogee altitude
500.632 km
Perigee altitude
497.188 km
Semi-major axis
6,877.047 km
Eccentricity
0.00025
Inclination
97.283°
RAAN
240.1116°
Arg. of periapsis
322.9251°
True anomaly
37.19855°
Mean anomaly
37.1812°
Eccentric anomaly
37.18987°
Mean motion
3.80575 °/min
Orbital period
94.59 mins
BSTAR
0.00025523
Loading maneuver chart data...
Computing Atmospheric mass density...
Loading historical data...
Loading historical data...
Loading historical data...
Loading historical data...
Loading historical data...
Loading historical data...
Loading historical data...

Documentation

Showing up to 5 results
|